Retour au catalogue

STARLINK-38219

ActifCommunicationsSSO
NORAD 100215·PAYLOAD·🇺🇸 United States

Lancé Aug 4, 2026 depuis Vandenberg Space Force Base

Loading…

Prochains Passages (prochaines 24 heures)

TLE

FraisSource: Space-Track

Époque: Sep 14, 2026, 22:57 UTC

1 A0215U 26177C   26257.95648694  .00019667  00000-0  36307-3 0  9995
2 A0215  97.2837 308.7187 0001465  92.5550 267.5869 15.49133639  7635

Suivez STARLINK-38219 en temps réel avec AllMySat

Download on the App Store